Retour au catalogue

STARLINK-37896

ActifCommunicationsVLEO
NORAD 69970·PAYLOAD·🇺🇸 United States

Lancé Jul 9, 2026 depuis Cape Canaveral Space Force Station

Loading…

Prochains Passages (prochaines 24 heures)

TLE

FraisSource: CelesTrak SupGP

Époque: Sep 14, 2026, 23:40 UTC

1 69970C 26157AD  26257.98659722 -.00003298  00000+0 -97432-4 0  2571
2 69970  53.1598 359.2305 0001424  69.0014 159.7984 15.34394490    18

Suivez STARLINK-37896 en temps réel avec AllMySat

Download on the App Store